This is the latest recevied weather packets stored in our database for station/object KB3FCJ-2. If no packets are shown the sender has not sent any weather packets the latest 10 day(s).
| Time | Temp. | Humidity | Pressure | Rain* | Wind** | Luminosity | Snow |
|---|---|---|---|---|---|---|---|
| 1777942110 | 18.33° C | 52% | 829 hPa | 0 mm | - | - | - |
| 1777941511 | 18.89° C | 51% | 829 hPa | 0 mm | - | - | - |
| 1777940669 | 19.44° C | 50% | 829 hPa | 0 mm | - | - | - |
| 1777940070 | 20° C | 49% | 829 hPa | 0 mm | - | - | - |
| 1777939470 | 20.56° C | 48% | 829 hPa | 0 mm | - | - | - |
| 1777938870 | 21.11° C | 46% | 829 hPa | 0 mm | - | - | - |
| 1777938027 | 21.67° C | 44% | 829 hPa | 0 mm | - | - | - |
| 1777937426 | 22.22° C | 45% | 829 hPa | 0 mm | - | - | - |
| 1777936827 | 22.78° C | 43% | 944.6 hPa | 0 mm | - | - | - |
| 1777936227 | 22.78° C | 42% | 944.6 hPa | 0 mm | - | - | - |
| 1777935392 | 22.78° C | 43% | 944.6 hPa | 0 mm | - | - | - |
| 1777934792 | 22.78° C | 43% | 944.6 hPa | 0 mm | - | - | - |
| 1777934192 | 22.22° C | 43% | 944.6 hPa | 0 mm | - | - | - |
| 1777933592 | 22.22° C | 41% | 944.6 hPa | 0 mm | - | - | - |
| 1777932791 | 23.33° C | 41% | 944.6 hPa | 0 mm | - | - | - |
| 1777932190 | 22.78° C | 40% | 944.6 hPa | 0 mm | - | - | - |
| 1777931591 | 22.22° C | 44% | 944.6 hPa | 0 mm | - | - | - |
| 1777930991 | 22.22° C | 41% | 944.6 hPa | 0 mm | - | - | - |
| 1777930391 | 22.78° C | 42% | 944.6 hPa | 0 mm | - | - | - |
| 1777929791 | 22.78° C | 42% | 944.6 hPa | 0 mm | - | - | - |
| 1777928952 | 22.78° C | 41% | 944.6 hPa | 0 mm | - | - | - |
| 1777928352 | 23.33° C | 40% | 944.6 hPa | 0 mm | - | - | - |
| 1777927752 | 23.33° C | 39% | 944.6 hPa | 0 mm | - | - | - |
| 1777927152 | 23.89° C | 39% | 944.6 hPa | 0 mm | - | - | - |
| 1777926313 | 22.78° C | 41% | 944.6 hPa | 0 mm | - | - | - |
* Rain latest hour (hover to see other rain measurements)
** Current wind speed in m/s (hover to see current wind gust speed)